McMinnville, OR

2:35 AM PDT on April 29, 2017 (GMT -0700)
McMinnville Municipal

Weather History for KMMV - August, 2013

Change the Weather History Date:

Saturday, August 24, 2013

  Actual Average Record
Temperature  
Mean Temperature 68 °F 66 °F  
Max Temperature 77 °F 82 °F 101 °F (1988)
Min Temperature 58 °F 50 °F 36 °F (1957)
Degree Days  
Heating Degree Days 0 2  
Month to date heating degree days 3 25  
Since 1 July heating degree days 14 69  
Cooling Degree Days 3 2  
Month to date cooling degree days 119 67  
Year to date cooling degree days 305 167  
Growing Degree Days 18 (Base 50)    
Moisture  
Dew Point 58 °F    
Average Humidity 73    
Maximum Humidity 100    
Minimum Humidity 46    
Precipitation  
Precipitation 0.02 in 0.02 in 0.94 in (1907)
Month to date precipitation 0.19 0.39  
Year to date precipitation 10.59 22.14  
Snow  
Snow 0.00 in - - ()
Month to date snowfall 0.0  
Since 1 June snowfall 0.0  
Snow Depth 0.00 in    
Sea Level Pressure  
Sea Level Pressure 29.91 in    
Wind  
Wind Speed 3 mph (NNW)    
Max Wind Speed 10 mph    
Max Gust Speed 20 mph    
Visibility 10 miles    
Events Rain    
T = Trace of Precipitation, MM = Missing Value Source: NWS Daily Summary

Daily Weather History Graph

Daily Weather History Graph

Search for Another Location

Airport or City:

Trip Planner

Search our weather history database for the weather conditions in past years. The results will help you decide how hot, cold, wet, or windy it might be!

Date:

Astronomy

Aug. 24, 2013 Rise Set
Actual Time 6:25 AM PDT 8:03 PM PDT
Civil Twilight 5:54 AM PDT 8:34 PM PDT
Nautical Twilight 5:16 AM PDT 9:12 PM PDT
Astronomical Twilight 4:35 AM PDT 9:52 PM PDT
Moon 9:45 PM PDT (8/24) 10:45 AM PDT (8/24)
Length of Visible Light 14h 40m
Length of Day
13h 38m
Waning Gibbous, 83% of the Moon is Illuminated
Aug 24
Waning Gibbous
Aug 28
Last Quarter
Sep 5
New
Sep 12
First Quarter
Sep 19
Full

Hourly Weather History & Observations

Time (PDT) Temp. Dew Point Humidity Pressure Visibility Wind Dir Wind Speed Gust Speed Precip Events Conditions
12:53 AM 63.0 °F 57.0 °F 81% 29.91 in 10.0 mi SSW 3.5 mph - N/A   Overcast
1:53 AM 63.0 °F 57.0 °F 81% 29.91 in 10.0 mi SSW 5.8 mph - N/A   Overcast
2:53 AM 63.0 °F 57.0 °F 81% 29.91 in 10.0 mi North - - N/A   Overcast
3:53 AM 63.0 °F 57.9 °F 84% 29.92 in 10.0 mi North - - N/A   Unknown
4:10 AM 62.6 °F 57.2 °F 82% 29.92 in 10.0 mi WSW 3.5 mph - N/A   Overcast
4:53 AM 61.0 °F 59.0 °F 93% 29.91 in 10.0 mi NW 4.6 mph - 0.00 in   Overcast
5:50 AM 60.8 °F 59.0 °F 94% 29.91 in 8.0 mi NNW 4.6 mph - 0.02 in Rain Light Rain
5:53 AM 60.1 °F 59.0 °F 96% 29.91 in 10.0 mi NNW 4.6 mph - 0.02 in Rain Light Rain
6:40 AM 60.8 °F 59.0 °F 94% 29.92 in 10.0 mi Calm Calm - 0.00 in   Overcast
6:53 AM 60.1 °F 60.1 °F 100% 29.92 in 10.0 mi Calm Calm - 0.00 in   Overcast
7:23 AM 60.8 °F 59.0 °F 94% 29.92 in 10.0 mi NNW 4.6 mph - N/A   Overcast
7:49 AM 60.8 °F 60.8 °F 100% 29.93 in 10.0 mi NW 5.8 mph - 0.00 in   Overcast
7:53 AM 61.0 °F 60.1 °F 97% 29.92 in 10.0 mi NNW 4.6 mph - 0.00 in   Overcast
8:05 AM 62.6 °F 60.8 °F 94% 29.92 in 10.0 mi North 3.5 mph - N/A   Overcast
8:48 AM 64.4 °F 62.6 °F 94% 29.92 in 10.0 mi NNE 4.6 mph - N/A   Overcast
8:53 AM 64.9 °F 62.1 °F 90% 29.92 in 10.0 mi Calm Calm - N/A   Overcast
9:04 AM 64.4 °F 60.8 °F 88% 29.92 in 10.0 mi Calm Calm - N/A   Overcast
9:13 AM 64.4 °F 60.8 °F 88% 29.92 in 10.0 mi Calm Calm - N/A   Overcast
9:46 AM 64.4 °F 60.8 °F 88% 29.92 in 10.0 mi NW 4.6 mph - N/A   Overcast
9:53 AM 64.0 °F 60.1 °F 87% 29.92 in 10.0 mi NW 4.6 mph - N/A   Overcast
10:53 AM 66.0 °F 60.1 °F 81% 29.92 in 10.0 mi Calm Calm - N/A   Overcast
11:38 AM 69.8 °F 60.8 °F 73% 29.92 in 10.0 mi ENE 5.8 mph - N/A   Overcast
11:49 AM 69.8 °F 60.8 °F 73% 29.92 in 10.0 mi ESE 4.6 mph - N/A   Overcast
11:53 AM 69.1 °F 60.1 °F 73% 29.91 in 10.0 mi East 4.6 mph - N/A   Overcast
12:10 PM 69.8 °F 60.8 °F 73% 29.91 in 10.0 mi Variable 3.5 mph - N/A   Overcast
12:53 PM 73.0 °F 57.0 °F 57% 29.89 in 10.0 mi Variable 3.5 mph - N/A   Partly Cloudy
1:53 PM 73.0 °F 55.9 °F 55% 29.89 in 10.0 mi Calm Calm - N/A   Overcast
2:53 PM 75.0 °F 55.9 °F 51% 29.88 in 10.0 mi Calm Calm - N/A   Scattered Clouds
3:53 PM 75.0 °F 54.0 °F 48% 29.87 in 10.0 mi Calm Calm - N/A   Overcast
4:53 PM 75.9 °F 53.1 °F 45% 29.87 in 10.0 mi NNE 4.6 mph - N/A   Scattered Clouds
5:53 PM 73.9 °F 54.0 °F 50% 29.86 in 10.0 mi NNW 6.9 mph - N/A   Partly Cloudy
6:53 PM 73.0 °F 54.0 °F 51% 29.85 in 10.0 mi NNW 4.6 mph - N/A   Mostly Cloudy
7:53 PM 71.1 °F 54.0 °F 55% 29.87 in 10.0 mi NW 8.1 mph - N/A   Overcast
8:53 PM 68.0 °F 54.0 °F 61% 29.89 in 10.0 mi NW 6.9 mph - N/A   Scattered Clouds
9:53 PM 66.0 °F 54.0 °F 65% 29.91 in 10.0 mi Calm Calm - N/A   Mostly Cloudy
10:53 PM 62.1 °F 54.0 °F 75% 29.91 in 10.0 mi Calm Calm - N/A   Partly Cloudy
11:53 PM 62.1 °F 55.0 °F 78% 29.91 in 10.0 mi Calm Calm - N/A   Clear